Location: Namasale
(1.5000°N, 32.6167°E)
Time: 22:07:06
(UTC+00:00)

Cosmos 1726 Rocket - Pass Details

Date: 09 April 2020
Orbit: 602 x 631 km, 82.5° (Epoch: 02 June)

Event Time Altitude Azimuth Distance (km) Brightness Sun altitude
Rises 17:06:04 0° 189° (S) 2,865 7.0 -18.4°
Reaches altitude 10° 17:08:18 10° 192° (SSW) 1,964 6.2 -18.9°
Maximum altitude 17:12:36 64° 273° (W) 681 3.9 -20.0°
Drops below altitude 10° 17:16:55 10° 355° (N) 1,974 6.3 -21.0°
Sets 17:19:10 0° 359° (N) 2,881 7.1 -21.6°
